Buochs Airport LSZC

Flugplatz Daten

Name: Buochs Airport

Ident: LSZC

Lat: 46,97444444

Long: 8,396944444

Platzhöhe: 1475 ft

IataCode: BXO

City: Buochs

Homepage: http://www.airportbuochs.ch/

Metar

2022/08/10 20:20
LSZC 102020Z AUTO 27004KT 9999 NCD 20/13 Q1020

Taf

Gewünschte Webcam nicht vorhanden? Dann fügen Sie eine hinzu. Sie wird dann so schnell wie möglich freigeschaltet
Url: Title: